FW2527 Weather Reports


Display with metric or nautical units.
time (UTC)temp
F
wind
direction
speed
MPH
gust
MPH
rain 1hr
in
rain 24hr
in
rain mn
in
humidity
%
barometer
mb
20260508170007 61 0.0 0.0 0.00 0.00 0.00 60 1017.5
20260508165557 61 0.0 0.0 0.00 0.00 0.00 59 1017.4
20260508165045 61 0.0 0.0 0.00 0.00 0.00 59 1017.5
20260508164504 61 0.0 0.0 0.00 0.00 0.00 58 1017.5
20260508164055 61 0.0 0.0 0.00 0.00 0.00 58 1017.5
20260508163542 61 0.0 0.0 0.00 0.00 0.00 58 1017.4
20260508163011 62 0.0 0.0 0.00 0.00 0.00 57 1017.4
20260508162603 62 0.0 0.0 0.00 0.00 0.00 57 1017.4
20260508162050 61 0.0 0.0 0.00 0.00 0.00 57 1017.4
20260508161509 62 0.0 0.0 0.00 0.00 0.00 57 1017.6
20260508161059 62 0.0 0.0 0.00 0.00 0.00 57 1017.5
20260508160546 62 0.0 0.0 0.00 0.00 0.00 56 1017.5
20260508160008 62 0.0 0.0 0.00 0.00 0.00 56 1017.6
20260508155556 62 0.0 0.0 0.00 0.00 0.00 56 1017.6
20260508155044 62 0.0 0.0 0.00 0.00 0.00 56 1017.5
20260508154503 62 0.0 0.0 0.00 0.00 0.00 56 1017.5
20260508154057 62 0.0 0.0 0.00 0.00 0.00 56 1017.5
20260508153542 62 0.0 0.0 0.00 0.00 0.00 56 1017.6
20260508153001 62 0.0 0.0 0.00 0.00 0.00 54 1017.5
20260508152553 62 0.0 0.0 0.00 0.00 0.00 54 1017.6
20260508152039 63 0.0 0.0 0.00 0.00 0.00 54 1017.5
20260508151609 63 0.0 0.0 0.00 0.00 0.00 53 1017.6
20260508151051 64 0.0 0.0 0.00 0.00 0.00 52 1017.6
20260508150544 64 0.0 0.0 0.00 0.00 0.00 52 1017.5
20260508145552 64 0.0 0.0 0.00 0.00 0.00 51 1017.5
20260508145041 65 0.0 0.0 0.00 0.00 0.00 51 1017.6
20260508144502 67 0.0 0.0 0.00 0.00 0.00 54 1017.6
20260508144053 65 0.0 0.0 0.00 0.00 0.00 49 1017.6
20260508143541 64 0.0 0.0 0.00 0.00 0.00 55 1017.6
20260508143102 63 0.0 0.0 0.00 0.00 0.00 54 1017.7
20260508142550 63 0.0 0.0 0.00 0.00 0.00 54 1017.7
20260508142039 63 0.0 0.0 0.00 0.00 0.00 53 1017.7
20260508141616 63 0.0 0.0 0.00 0.00 0.00 56 1017.9
20260508141048 63 0.0 0.0 0.00 0.00 0.00 53 1017.8
20260508140541 64 0.0 0.0 0.00 0.00 0.00 56 1017.8
20260508140008 64 0.0 0.0 0.00 0.00 0.00 52 1017.9
20260508135601 66 0.0 0.0 0.00 0.00 0.00 56 1018.0
20260508135046 64 0.0 0.0 0.00 0.00 0.00 56 1018.1
20260508134503 62 0.0 0.0 0.00 0.00 0.00 56 1018.1
20260508134054 62 0.0 0.0 0.00 0.00 0.00 57 1018.1
20260508133544 61 0.0 0.0 0.00 0.00 0.00 55 1018.2
20260508133055 61 0.0 0.0 0.00 0.00 0.00 56 1018.2
20260508132543 61 0.0 0.0 0.00 0.00 0.00 57 1018.1
20260508132031 61 0.0 0.0 0.00 0.00 0.00 57 1018.1
20260508131601 61 0.0 0.0 0.00 0.00 0.00 61 1018.0
20260508131041 61 0.0 0.0 0.00 0.00 0.00 59 1018.1
20260508130528 61 0.0 0.0 0.00 0.00 0.00 59 1018.0
20260508130049 61 0.0 0.0 0.00 0.00 0.00 60 1018.2
20260508125538 61 0.0 0.0 0.00 0.00 0.00 61 1018.1
20260508125026 61 0.0 0.0 0.00 0.00 0.00 61 1018.1
20260508124547 60 0.0 0.0 0.00 0.00 0.00 61 1018.1
20260508124035 60 0.0 0.0 0.00 0.00 0.00 61 1018.1
20260508123525 60 0.0 0.0 0.00 0.00 0.00 61 1018.2
20260508123046 60 0.0 0.0 0.00 0.00 0.00 61 1018.1
20260508122536 61 0.0 0.0 0.00 0.00 0.00 61 1018.1
20260508122025 60 0.0 0.0 0.00 0.00 0.00 63 1018.1
20260508121552 60 0.0 0.0 0.00 0.00 0.00 64 1018.2
20260508121037 60 0.0 0.0 0.00 0.00 0.00 62 1018.1
20260508120526 60 0.0 0.0 0.00 0.00 0.00 62 1018.2
20260508120056 60 0.0 0.0 0.00 0.00 0.00 63 1018.1
20260508115538 61 0.0 0.0 0.00 0.00 0.00 62 1018.2
20260508115028 61 0.0 0.0 0.00 0.00 0.00 62 1018.2
20260508114550 62 0.0 0.0 0.00 0.00 0.00 60 1018.2
20260508114041 63 0.0 0.0 0.00 0.00 0.00 62 1018.2
20260508113533 61 0.0 0.0 0.00 0.00 0.00 63 1018.2
20260508113056 60 0.0 0.0 0.00 0.00 0.00 64 1018.3
20260508112540 61 0.0 0.0 0.00 0.00 0.00 62 1018.4
20260508112030 61 0.0 0.0 0.00 0.00 0.00 62 1018.4
20260508111558 61 0.0 0.0 0.00 0.00 0.00 63 1018.4
20260508111042 60 0.0 0.0 0.00 0.00 0.00 65 1018.5
20260508110535 60 0.0 0.0 0.00 0.00 0.00 62 1018.5
20260508110100 61 0.0 0.0 0.00 0.00 0.00 64 1018.5
20260508105542 61 0.0 0.0 0.00 0.00 0.00 65 1018.5
20260508105032 62 0.0 0.0 0.00 0.00 0.00 63 1018.5
20260508104513 62 0.0 0.0 0.00 0.00 0.00 64 1018.5
20260508104000 61 0.0 0.0 0.00 0.00 0.00 65 1018.6
20260508103551 62 0.0 0.0 0.00 0.00 0.00 64 1018.6
20260508103024 61 0.0 0.0 0.00 0.00 0.00 65 1018.6
20260508102600 60 0.0 0.0 0.00 0.00 0.00 67 1018.6
20260508102049 60 0.0 0.0 0.00 0.00 0.00 66 1018.6
20260508101526 60 0.0 0.0 0.00 0.00 0.00 65 1018.7
20260508101005 60 0.0 0.0 0.00 0.00 0.00 68 1018.7
20260508100555 59 0.0 0.0 0.00 0.00 0.00 69 1018.8
20260508100014 59 0.0 0.0 0.00 0.00 0.00 68 1018.8
20260508095502 60 0.0 0.0 0.00 0.00 0.00 69 1018.9
20260508095053 60 0.0 0.0 0.00 0.00 0.00 68 1018.8
20260508094521 59 0.0 0.0 0.00 0.00 0.00 70 1018.8
20260508094009 58 0.0 0.0 0.00 0.00 0.00 69 1018.8
20260508093600 58 0.0 0.0 0.00 0.00 0.00 71 1018.8
20260508093019 58 0.0 0.0 0.00 0.00 0.00 71 1018.7
20260508092507 58 0.0 0.0 0.00 0.00 0.00 71 1018.7
20260508092101 57 0.0 0.0 0.00 0.00 0.00 72 1018.8
20260508091516 58 0.0 0.0 0.00 0.00 0.00 71 1018.9
20260508091004 58 0.0 0.0 0.00 0.00 0.00 69 1018.9
20260508090556 58 0.0 0.0 0.00 0.00 0.00 70 1018.8
20260508090014 58 0.0 0.0 0.00 0.00 0.00 71 1018.9
20260508085503 58 0.0 0.0 0.00 0.00 0.00 72 1018.9
20260508085053 57 0.0 0.0 0.00 0.00 0.00 72 1019.0
20260508084511 57 0.0 0.0 0.00 0.00 0.00 73 1018.8
20260508084104 57 0.0 0.0 0.00 0.00 0.00 75 1019.0
20260508083552 57 0.0 0.0 0.00 0.00 0.00 74 1018.9
20260508083012 57 0.0 0.0 0.00 0.00 0.00 75 1018.9
20260508082559 57 0.0 0.0 0.00 0.00 0.00 75 1018.8
20260508082049 56 0.0 0.0 0.00 0.00 0.00 76 1018.7
20260508081508 56 0.0 0.0 0.00 0.00 0.00 75 1018.8
20260508081058 56 0.0 0.0 0.00 0.00 0.00 75 1018.8
20260508080546 56 0.0 0.0 0.00 0.00 0.00 76 1018.7
20260508080009 55 0.0 0.0 0.00 0.00 0.00 76 1018.7
20260508075600 55 0.0 0.0 0.00 0.00 0.00 77 1018.7
20260508075046 55 0.0 0.0 0.00 0.00 0.00 77 1018.8
20260508074507 55 0.0 0.0 0.00 0.00 0.00 79 1018.9
20260508074056 54 0.0 0.0 0.00 0.00 0.00 78 1019.0
20260508073545 54 0.0 0.0 0.00 0.00 0.00 80 1019.0
20260508073002 54 0.0 0.0 0.00 0.00 0.00 81 1018.9
20260508072552 53 0.0 0.0 0.00 0.00 0.00 81 1019.0
20260508072044 53 0.0 0.0 0.00 0.00 0.00 82 1018.9
20260508071508 53 0.0 0.0 0.00 0.00 0.00 83 1018.9
20260508071059 52 0.0 0.0 0.00 0.00 0.00 83 1018.9
20260508070547 52 0.0 0.0 0.00 0.00 0.00 84 1019.0
20260508070006 52 0.0 0.0 0.00 0.00 0.00 85 1019.0
20260508065556 52 0.0 0.0 0.00 0.00 0.00 87 1019.0
20260508065045 51 0.0 0.0 0.00 0.00 0.00 88 1018.9
20260508064505 50 0.0 0.0 0.00 0.00 0.00 89 1018.7
20260508064056 50 0.0 0.0 0.00 0.00 0.00 89 1018.7
20260508063544 49 0.0 0.0 0.00 0.00 0.00 89 1018.6
20260508063004 49 0.0 0.0 0.00 0.00 0.00 91 1018.6
20260508062554 48 0.0 0.0 0.00 0.00 0.00 91 1018.6
20260508062042 48 0.0 0.0 0.00 0.00 0.00 91 1018.5
20260508061516 48 0.0 0.0 0.00 0.00 0.00 91 1018.4
20260508061103 47 0.0 0.0 0.00 0.00 0.00 92 1018.4
20260508060548 47 0.0 0.0 0.00 0.00 0.00 92 1018.3
20260508060009 46 0.0 0.0 0.00 0.00 0.00 92 1018.4
20260508055601 46 0.0 0.0 0.00 0.00 0.00 92 1018.3
20260508055045 46 0.0 0.0 0.00 0.00 0.00 92 1018.4
20260508054516 46 0.0 0.0 0.00 0.00 0.00 92 1018.3
20260508054002 45 0.0 0.0 0.00 0.00 0.00 92 1018.3
20260508053552 45 0.0 0.0 0.00 0.00 0.00 92 1018.4
20260508053020 45 0.0 0.0 0.00 0.00 0.00 92 1018.4
20260508052501 45 0.0 0.0 0.00 0.00 0.00 92 1018.3
20260508052051 44 0.0 0.0 0.00 0.00 0.00 93 1018.3
20260508051511 44 0.0 0.0 0.00 0.00 0.00 92 1018.3
20260508051103 44 0.0 0.0 0.00 0.00 0.00 92 1018.3
20260508050550 43 0.0 0.0 0.00 0.00 0.00 92 1018.2
20260508050023 43 0.0 0.0 0.00 0.00 0.00 92 1018.1
20260508045509 42 0.0 0.0 0.00 0.00 0.00 92 1018.1
20260508045056 42 0.0 0.0 0.00 0.00 0.00 92 1018.1
20260508044516 42 0.0 0.0 0.00 0.00 0.00 92 1018.1
20260508044006 42 0.0 0.0 0.00 0.00 0.00 92 1018.1
20260508043555 42 0.0 0.0 0.00 0.00 0.00 92 1018.1
20260508043014 42 0.0 0.0 0.00 0.00 0.00 92 1018.1
20260508042503 42 0.0 0.0 0.00 0.00 0.00 92 1018.2
20260508042057 41 0.0 0.0 0.00 0.00 0.00 92 1018.0
20260508041512 41 0.0 0.0 0.00 0.00 0.00 91 1018.0
20260508041103 41 0.0 0.0 0.00 0.00 0.00 91 1017.9
20260508040551 41 0.0 0.0 0.00 0.00 0.00 91 1017.9
20260508040023 42 0.0 0.0 0.00 0.00 0.00 91 1017.9
20260508035507 42 0.0 0.0 0.00 0.00 0.00 91 1017.8
20260508035057 42 0.0 0.0 0.00 0.00 0.00 91 1017.9
20260508034516 42 0.0 0.0 0.00 0.00 0.00 91 1017.8
20260508034006 42 0.0 0.0 0.00 0.00 0.00 91 1017.9
20260508033555 42 0.0 0.0 0.00 0.00 0.00 91 1017.9
20260508033025 42 0.0 0.0 0.00 0.00 0.00 91 1017.9
20260508032512 42 0.0 0.0 0.00 0.00 0.00 91 1017.9
20260508032106 42 0.0 0.0 0.00 0.00 0.00 91 1017.9
20260508031527 42 0.0 0.0 0.00 0.00 0.00 91 1017.8
20260508031007 42 0.0 0.0 0.00 0.00 0.00 91 1017.9
20260508030558 42 0.0 0.0 0.00 0.00 0.00 91 1017.9
20260508030017 42 0.0 0.0 0.00 0.00 0.00 91 1017.8
20260508025505 42 0.0 0.0 0.00 0.00 0.00 91 1017.9
20260508025055 42 0.0 0.0 0.00 0.00 0.00 91 1017.9
20260508024515 42 0.0 0.0 0.00 0.00 0.00 91 1017.9
20260508024003 43 0.0 0.0 0.00 0.00 0.00 91 1017.8
20260508023552 42 0.0 0.0 0.00 0.00 0.00 90 1017.9
20260508023023 43 0.0 0.0 0.00 0.00 0.00 91 1017.6
20260508022500 43 0.0 0.0 0.00 0.00 0.00 90 1017.7
20260508022051 43 0.0 0.0 0.00 0.00 0.00 90 1017.7
20260508021512 43 0.0 0.0 0.00 0.00 0.00 90 1017.9
20260508021103 43 0.0 0.0 0.00 0.00 0.00 90 1017.8
20260508020548 43 0.0 0.0 0.00 0.00 0.00 90 1017.9
20260508020006 43 0.0 0.0 0.00 0.00 0.00 90 1017.8
20260508015557 44 0.0 0.0 0.00 0.00 0.00 90 1017.8
20260508015045 44 0.0 0.0 0.00 0.00 0.00 90 1017.9
20260508014510 44 0.0 0.0 0.00 0.00 0.00 90 1017.8
20260508014058 44 0.0 0.0 0.00 0.00 0.00 90 1017.8
20260508013542 44 0.0 0.0 0.00 0.00 0.00 90 1017.8
20260508013001 44 0.0 0.0 0.00 0.00 0.00 90 1017.9
20260508012552 44 0.0 0.0 0.00 0.00 0.00 90 1017.8
20260508012040 44 0.0 0.0 0.00 0.00 0.00 90 1017.8
20260508011508 44 0.0 0.0 0.00 0.00 0.00 90 1017.9
20260508011059 45 0.0 0.0 0.00 0.00 0.00 90 1017.9
20260508010549 45 0.0 0.0 0.00 0.00 0.00 90 1017.8
20260508010006 45 0.0 0.0 0.00 0.00 0.00 90 1017.9
20260508005554 45 0.0 0.0 0.00 0.00 0.00 89 1017.9
20260508005042 45 0.0 0.0 0.00 0.00 0.00 89 1017.9
20260508004506 45 0.0 0.0 0.00 0.00 0.00 89 1018.0
20260508004052 45 0.0 0.0 0.00 0.00 0.00 89 1017.9
20260508003539 45 0.0 0.0 0.00 0.00 0.00 89 1018.0
20260508003027 45 0.0 0.0 0.00 0.00 0.00 89 1017.9
20260508002558 45 0.0 0.0 0.00 0.00 0.00 89 1018.0
20260508002047 45 0.0 0.0 0.00 0.00 0.00 89 1017.9
20260508001505 45 0.0 0.0 0.00 0.00 0.00 88 1017.9
20260508001055 45 0.0 0.0 0.00 0.00 0.00 88 1018.1
20260508000546 45 0.0 0.0 0.00 0.00 0.00 88 1018.1
20260508000002 45 0.0 0.0 0.00 0.00 0.00 88 1018.1
20260507235555 45 0.0 0.0 0.00 0.00 0.00 88 1018.1
20260507235042 45 0.0 0.0 0.00 0.00 0.00 88 1018.1
20260507234501 45 0.0 0.0 0.00 0.00 0.00 87 1018.2
20260507234052 45 0.0 0.0 0.00 0.00 0.00 87 1018.1
20260507233539 45 0.0 0.0 0.00 0.00 0.00 87 1018.1
20260507233007 46 0.0 0.0 0.00 0.00 0.00 87 1018.0
20260507232600 46 0.0 0.0 0.00 0.00 0.00 87 1018.0
20260507232046 46 0.0 0.0 0.00 0.00 0.00 87 1017.9
20260507231505 46 0.0 0.0 0.00 0.00 0.00 86 1018.0
20260507231056 46 0.0 0.0 0.00 0.00 0.00 86 1018.0
20260507230544 46 0.0 0.0 0.00 0.00 0.00 86 1017.9
20260507230015 46 0.0 0.0 0.00 0.00 0.00 86 1017.9
20260507225605 46 0.0 0.0 0.00 0.00 0.00 85 1017.9
20260507225050 47 0.0 0.0 0.00 0.00 0.00 85 1018.1
20260507224513 47 0.0 0.0 0.00 0.00 0.00 85 1018.0
20260507224101 47 0.0 0.0 0.00 0.00 0.00 85 1018.1
20260507223548 47 0.0 0.0 0.00 0.00 0.00 85 1018.1
20260507223008 47 0.0 0.0 0.00 0.00 0.00 84 1018.0
20260507222558 47 0.0 0.0 0.00 0.00 0.00 84 1018.0
20260507222046 48 0.0 0.0 0.00 0.00 0.00 84 1018.0
20260507221505 48 0.0 0.0 0.00 0.00 0.00 83 1018.1
20260507221059 48 0.0 0.0 0.00 0.00 0.00 83 1018.0
20260507220545 48 0.0 0.0 0.00 0.00 0.00 83 1017.9
20260507220003 48 0.0 0.0 0.00 0.00 0.00 82 1017.8
20260507215553 49 0.0 0.0 0.00 0.00 0.00 82 1017.8
20260507215041 49 0.0 0.0 0.00 0.00 0.00 82 1017.8
20260507214606 49 0.0 0.0 0.00 0.00 0.00 82 1017.8
20260507214051 49 0.0 0.0 0.00 0.00 0.00 82 1017.7
20260507213539 49 0.0 0.0 0.00 0.00 0.00 81 1017.7
20260507213101 49 0.0 0.0 0.00 0.00 0.00 81 1017.7
20260507212548 50 0.0 0.0 0.00 0.00 0.00 81 1017.7
20260507212036 50 0.0 0.0 0.00 0.00 0.00 80 1017.5
20260507211506 50 0.0 0.0 0.00 0.00 0.00 80 1017.6
20260507211056 50 0.0 0.0 0.00 0.00 0.00 80 1017.6
20260507210544 50 0.0 0.0 0.00 0.00 0.00 80 1017.6
20260507210003 50 0.0 0.0 0.00 0.00 0.00 79 1017.5
20260507205554 51 0.0 0.0 0.00 0.00 0.00 79 1017.4
20260507205043 51 0.0 0.0 0.00 0.00 0.00 79 1017.5
20260507204504 51 0.0 0.0 0.00 0.00 0.00 79 1017.4
20260507204054 51 0.0 0.0 0.00 0.00 0.00 79 1017.5
20260507203542 51 0.0 0.0 0.00 0.00 0.00 78 1017.3
20260507203004 51 0.0 0.0 0.00 0.00 0.00 78 1017.3
20260507202551 52 0.0 0.0 0.00 0.00 0.00 78 1017.4
20260507202039 52 0.0 0.0 0.00 0.00 0.00 77 1017.1
20260507201509 52 0.0 0.0 0.00 0.00 0.00 77 1017.1
20260507201059 52 0.0 0.0 0.00 0.00 0.00 77 1017.0
20260507200548 52 0.0 0.0 0.00 0.00 0.00 76 1017.0
20260507200006 53 0.0 0.0 0.00 0.00 0.00 76 1016.8
20260507195601 53 0.0 0.0 0.00 0.00 0.00 76 1016.9
20260507195046 53 0.0 0.0 0.00 0.00 0.00 75 1016.9
20260507194503 53 0.0 0.0 0.00 0.00 0.00 75 1016.9
20260507194056 54 0.0 0.0 0.00 0.00 0.00 75 1016.7
20260507193541 54 0.0 0.0 0.00 0.00 0.00 74 1016.7
20260507193004 54 0.0 0.0 0.00 0.00 0.00 74 1016.7
20260507192551 54 0.0 0.0 0.00 0.00 0.00 73 1016.7
20260507192040 55 0.0 0.0 0.00 0.00 0.00 73 1016.6
20260507191510 55 0.0 0.0 0.00 0.00 0.00 73 1016.6
20260507191059 55 0.0 0.0 0.00 0.00 0.00 72 1016.6
20260507190550 55 0.0 0.0 0.00 0.00 0.00 72 1016.6
20260507190006 55 0.0 0.0 0.00 0.00 0.00 71 1016.5
20260507185556 56 0.0 0.0 0.00 0.00 0.00 71 1016.5
20260507185044 56 0.0 0.0 0.00 0.00 0.00 70 1016.4
20260507184511 56 0.0 0.0 0.00 0.00 0.00 70 1016.3
20260507184055 56 0.0 0.0 0.00 0.00 0.00 70 1016.2
20260507183542 56 0.0 0.0 0.00 0.00 0.00 69 1016.2
20260507183004 57 0.0 0.0 0.00 0.00 0.00 68 1016.2
20260507182553 57 0.0 0.0 0.00 0.00 0.00 68 1016.1
20260507182041 57 0.0 0.0 0.00 0.00 0.00 67 1016.0
20260507181603 57 0.0 0.0 0.00 0.00 0.00 67 1016.2
20260507181051 58 0.0 0.0 0.00 0.00 0.00 66 1016.2
20260507180542 58 0.0 0.0 0.00 0.00 0.00 64 1016.1
20260507180012 59 0.0 0.0 0.00 0.00 0.00 63 1016.0
20260507175558 59 0.0 0.0 0.00 0.00 0.00 63 1015.8
20260507175047 60 0.0 0.0 0.00 0.00 0.00 60 1015.8
20260507174506 60 0.0 0.0 0.00 0.00 0.00 58 1015.8
20260507174056 60 0.0 0.0 0.00 0.00 0.00 57 1015.8
20260507173543 60 0.0 0.0 0.00 0.00 0.00 57 1016.0
20260507173003 60 0.0 0.0 0.00 0.00 0.00 56 1016.0
20260507172552 60 0.0 0.0 0.00 0.00 0.00 56 1015.9
20260507172042 60 0.0 0.0 0.00 0.00 0.00 58 1015.9
20260507171502 61 0.0 0.0 0.00 0.00 0.00 59 1015.9
20260507171051 61 0.0 0.0 0.00 0.00 0.00 57 1015.9
20260507170543 61 0.0 0.0 0.00 0.00 0.00 56 1015.8